Regional Weather Roundup
Issued by NWS

Home | Current Version | Previous Version | Graphics & Text | Print | Product List | Glossary On
Versions: 1 2 3 4 5 6 7 8 9 10 11 12 13 14 15 16 17 18 19 20 21 22 23 24 25 26 27 28 29 30 31 32 33 34 35 36 37 38 39 40 41 42 43 44 45 46 47 48 49 50
000
ASUS43 KLOT 140906
RWRIL

ILLINOIS REGIONAL WEATHER ROUNDUP
NATIONAL WEATHER SERVICE CHICAGO/ROMEOVILLE IL
400 AM CDT MON JUL 14 2014

NOTE: "FAIR" INDICATES FEW OR NO CLOUDS BELOW 12,000 FEET WITH NO
SIGNIFICANT WEATHER AND/OR OBSTRUCTIONS TO VISIBILITY.

* THESE STATIONS ARE NOT UNDER NWS QUALITY CONTROL. THEY ALSO MAY NOT
  REPORT WEATHER SUCH AS PRECIPITATION OR FOG.

ILZ001-002-007-009-015-016-024-141000-
NORTHWEST ILLINOIS

CITY           SKY/WX    TMP DP  RH WIND       PRES   REMARKS
MOLINE         MOCLDY    67  64  90 CALM      29.88F
STERLING*      CLOUDY    63  61  94 CALM      29.89S VSB 3/4
SAVANNA*       PTCLDY    64  61  91 SE5       29.87F
$$

ILZ003-004-008-010-011-017-018-141000-
NORTH CENTRAL ILLINOIS

CITY           SKY/WX    TMP DP  RH WIND       PRES   REMARKS
ROCKFORD       CLOUDY    62  56  80 CALM      29.90F
FREEPORT*      MOCLDY    57  55  93 CALM      29.91F
ROCHELLE*      MOCLDY    59  58  96 CALM      29.89F FOG
DE KALB*       CLOUDY    62  55  77 CALM      29.90F
PERU*          PTCLDY    65  64  94 CALM      29.90S
$$

ILZ005-006-012>014-019>023-141000-
NORTHEAST ILLINOIS

CITY           SKY/WX    TMP DP  RH WIND       PRES   REMARKS
CHICAGO-OHARE  PTCLDY    64  54  69 SW5       29.88S
CHICAGO-MIDWAY CLEAR     68  56  65 CALM      29.88F
AURORA         PTCLDY    61  57  87 CALM      29.89F
LANSING*       PTCLDY    63  56  80 CALM      29.89F
JOLIET*        CLEAR     62  60  96 CALM      29.90S FOG
WAUKEGAN       CLEAR     59  58  96 CALM      29.87F
DUPAGE AIRPORT PTCLDY    62  55  77 CALM      29.89S
KANKAKEE*      PTCLDY    65  64  97 CALM      29.90F FOG
WHEELING       PTCLDY    64  56  75 CALM      29.89S
MORRIS*        CLEAR     64  64 100 CALM      29.89S
ROMEOVILLE*    CLEAR     63  61  93 CALM      29.89S
NORTHERLY ISL    N/A     66  54  65 S1          N/A
$$

LMZ740>746-141000-
SOUTHERN LAKE MICHIGAN

STATION/POSITION SKY/WX   TEMP    WIND        PRES    VSBY  WAVE
                          AIR SEA DIR/SP/G                  HT/PER
                          (F)     (DEG/KT/KT) (MB)    (MI)  (FT/S)
SOUTHERN BUOY              65 65  200/  2/  2 1011.5F         0
WAUKEGAN HARBOR            66     270/  3/  6 1012.9F
HARRISON CRIB              69     330/  2/  3   N/A
BURNHAM HARBOR             65      CALM  /  3   N/A
CALUMET HARBOR             67      CALM  /  1 1012.8F
BURNS HARBOR               71     310/ 10/ 14 1013.2R
MICHIGAN CITY              71     270/ 10/ 12   N/A
$$

ILZ025>027-034>036-040-047-049-050-058-095>099-141000-
WEST-CENTRAL ILLINOIS

CITY           SKY/WX    TMP DP  RH WIND       PRES   REMARKS
QUINCY         CLEAR     69  66  90 SW6       29.92F
GALESBURG*     CLEAR     62  61  96 CALM      29.90F FOG
MACOMB*        PTCLDY    65  65 100 SW3       29.92F
JACKSONVILLE*  FOG       69  69  98 CALM      29.92S VSB 1/2
PITTSFIELD*    MOCLDY    70  68  92 CALM      29.93S
$$

ILZ028>032-037-038-041>044-048-051>054-059>061-141000-
CENTRAL ILLINOIS

CITY           SKY/WX    TMP DP  RH WIND       PRES   REMARKS
PONTIAC        PTCLDY    64  64 100 CALM      29.89F FOG
BLOOMINGTON    PTCLDY    67  64  90 CALM      29.91F
DECATUR        CLOUDY    68  67  96 CALM      29.90F
PEORIA         CLEAR     68  64  87 CALM      29.90F
LACON*         CLEAR     64  62  94 CALM      29.89S
LINCOLN*       PTCLDY    67  65  94 CALM      29.87F
SPRINGFIELD    FOG       68  66  93 CALM      29.91S VSB 3/4
TAYLORVILLE      N/A     66  66 100 CALM      29.91S FOG
$$

ILZ033-039-045-046-055>057-062-063-141000-
EAST-CENTRAL ILLINOIS

CITY           SKY/WX    TMP DP  RH WIND       PRES   REMARKS
CHAMPAIGN      CLOUDY    69  66  90 N5        29.90F
RANTOUL*       CLOUDY    72  64  73 CALM      29.91F
MATTOON          N/A     71  69  93 CALM      29.90F
PARIS*         CLOUDY    68  68  99 CALM      29.91F
$$

ILZ079-100>102-141000-
SOUTHWEST ILLINOIS

CITY           SKY/WX    TMP DP  RH WIND       PRES   REMARKS
ALTON          MOCLDY    72  72 100 S5        29.92F
BELLEVILLE     CLOUDY    73  73 100 W3        29.91S
CAHOKIA*       CLOUDY    74  72  93 W5        29.92S
SPARTA*        CLOUDY    70  68  94 W5        29.93S
$$

ILZ064>066-069>071-074>076-080>082-084>086-088>090-092>094-141000-
SOUTH-CENTRAL ILLINOIS

CITY           SKY/WX    TMP DP  RH WIND       PRES   REMARKS
CARBONDALE     CLOUDY    71  68  90 SW7       29.92F
CAIRO*         MOCLDY    78  68  72 NW14      29.95R HX  80
MARION         LGT RAIN  72  70  94 SW8       29.94R
MT. VERNON     CLOUDY    72  66  83 CALM      29.93F
CENTRALIA*     CLOUDY    71  69  93 W5        29.92S
SALEM*         CLOUDY    74  73  96 W7        29.93R
METROPOLIS*    CLOUDY    76  67  73 NW5       29.96R HAZE
$$

ILZ067-068-072-073-078-083-087-091-141000-
SOUTHEAST ILLINOIS

CITY           SKY/WX    TMP DP  RH WIND       PRES   REMARKS
FLORA*         HVY RAIN  72  71  96 W9        29.92R
HARRISBURG*    RAIN      71  71 100 S5        29.95S
ROBINSON*      CLOUDY    73  72  96 CALM      29.91F
CARMI*         RAIN      72  72  98 S7        29.92S
$$

ABBREVIATIONS USED IN REMARKS
   TC - TEMPERATURE IN CELSIUS
  WCI - WIND CHILL INDEX
   HX - HEAT INDEX
  VSB - VISIBILITY
$$




USA.gov is the U.S. government's official web portal to all federal, state and local government web resources and services.